Time,TemperatureF,DewpointF,PressureIn,WindDirection,WindDirectionDegrees,WindSpeedMPH,WindSpeedGustMPH,Humidity,HourlyPrecipIn,Conditions,Clouds,dailyrainin,SolarRadiationWatts/m^2,SoftwareType,DateUTC
2013-02-24 00:01:00,39.0,28.0,-100.00,SW,217,5.0,12.0,65,-99.99,,,0.00,0.000000,,2013-02-24 08:01:00,
2013-02-24 00:11:00,39.0,28.0,-100.00,SW,217,5.0,12.0,65,-99.99,,,0.00,0.000000,,2013-02-24 08:11:00,
2013-02-24 00:42:00,38.0,30.0,-100.00,South,185,4.0,8.0,73,-99.99,,,0.00,0.000000,,2013-02-24 08:42:00,
2013-02-24 00:54:00,38.0,30.0,-100.00,South,185,4.0,8.0,73,-99.99,,,0.00,0.000000,,2013-02-24 08:54:00,
2013-02-24 01:01:00,38.0,30.0,-100.00,South,185,4.0,8.0,73,-99.99,,,0.00,0.000000,,2013-02-24 09:01:00,
2013-02-24 01:11:00,38.0,30.0,-100.00,South,185,4.0,8.0,73,-99.99,,,0.00,0.000000,,2013-02-24 09:11:00,
2013-02-24 01:41:00,37.0,28.0,-100.00,South,189,4.0,9.0,68,-99.99,,,0.00,0.000000,,2013-02-24 09:41:00,
2013-02-24 01:52:00,37.0,28.0,-100.00,South,189,4.0,9.0,68,-99.99,,,0.00,0.000000,,2013-02-24 09:52:00,
2013-02-24 02:01:00,37.0,28.0,-100.00,South,189,4.0,9.0,68,-99.99,,,0.00,0.000000,,2013-02-24 10:01:00,
2013-02-24 02:11:00,37.0,28.0,-100.00,South,189,4.0,9.0,68,-99.99,,,0.00,0.000000,,2013-02-24 10:11:00,
2013-02-24 02:41:00,38.0,28.0,-100.00,SSW,206,3.0,10.0,66,-99.99,,,0.00,0.000000,,2013-02-24 10:41:00,
2013-02-24 02:52:00,38.0,28.0,-100.00,SSW,206,3.0,10.0,66,-99.99,,,0.00,0.000000,,2013-02-24 10:52:00,
2013-02-24 03:01:00,38.0,28.0,-100.00,SSW,206,3.0,10.0,66,-99.99,,,0.00,0.000000,,2013-02-24 11:01:00,
2013-02-24 03:11:00,38.0,28.0,-100.00,SSW,206,3.0,10.0,66,-99.99,,,0.00,0.000000,,2013-02-24 11:11:00,
2013-02-24 03:41:00,37.0,28.0,-100.00,South,170,3.0,5.0,68,-99.99,,,0.00,0.000000,,2013-02-24 11:41:00,
2013-02-24 03:52:00,37.0,28.0,-100.00,South,170,3.0,5.0,68,-99.99,,,0.00,0.000000,,2013-02-24 11:52:00,
2013-02-24 04:01:00,37.0,28.0,-100.00,South,170,3.0,5.0,68,-99.99,,,0.00,0.000000,,2013-02-24 12:01:00,
2013-02-24 04:11:00,37.0,28.0,-100.00,South,170,3.0,5.0,68,-99.99,,,0.00,0.000000,,2013-02-24 12:11:00,
2013-02-24 04:46:00,37.0,29.0,-100.00,SSW,196,2.0,5.0,72,-99.99,,,0.00,0.000000,,2013-02-24 12:46:00,
2013-02-24 04:56:00,37.0,29.0,-100.00,SSW,196,2.0,5.0,72,-99.99,,,0.00,0.000000,,2013-02-24 12:56:00,
2013-02-24 05:06:00,37.0,29.0,-100.00,SSW,196,2.0,5.0,72,-99.99,,,0.00,0.000000,,2013-02-24 13:06:00,
2013-02-24 05:43:00,38.0,29.0,-100.00,SSE,161,4.0,7.0,71,-99.99,,,0.00,0.000000,,2013-02-24 13:43:00,
2013-02-24 05:54:00,38.0,29.0,-100.00,SSE,161,4.0,7.0,71,-99.99,,,0.00,0.000000,,2013-02-24 13:54:00,
2013-02-24 06:03:00,38.0,29.0,-100.00,SSE,161,4.0,7.0,71,-99.99,,,0.00,0.000000,,2013-02-24 14:03:00,
2013-02-24 06:12:00,38.0,29.0,-100.00,SSE,161,4.0,7.0,71,-99.99,,,0.00,0.000000,,2013-02-24 14:12:00,
2013-02-24 06:43:00,38.0,29.0,-100.00,SSW,213,4.0,11.0,67,-99.99,,,0.00,0.000000,,2013-02-24 14:43:00,
2013-02-24 06:54:00,38.0,29.0,-100.00,SSW,213,4.0,11.0,67,-99.99,,,0.00,0.000000,,2013-02-24 14:54:00,
2013-02-24 07:02:00,38.0,29.0,-100.00,SSW,213,4.0,11.0,67,-99.99,,,0.00,0.000000,,2013-02-24 15:02:00,
2013-02-24 07:12:00,38.0,29.0,-100.00,SSW,213,4.0,11.0,67,-99.99,,,0.00,0.000000,,2013-02-24 15:12:00,
2013-02-24 07:42:00,39.0,28.0,-100.00,SSW,203,5.0,11.0,64,-99.99,,,0.00,21.150000,,2013-02-24 15:42:00,
2013-02-24 07:52:00,39.0,28.0,-100.00,SSW,203,5.0,11.0,64,-99.99,,,0.00,21.150000,,2013-02-24 15:52:00,
2013-02-24 08:01:00,39.0,28.0,-100.00,SSW,203,5.0,11.0,64,-99.99,,,0.00,21.150000,,2013-02-24 16:01:00,
2013-02-24 08:11:00,39.0,28.0,-100.00,SSW,203,5.0,11.0,64,-99.99,,,0.00,21.150000,,2013-02-24 16:11:00,
2013-02-24 08:41:00,39.0,29.0,-100.00,South,187,5.0,10.0,66,-99.99,,,0.00,64.150002,,2013-02-24 16:41:00,
2013-02-24 08:52:00,39.0,29.0,-100.00,South,187,5.0,10.0,66,-99.99,,,0.00,64.150002,,2013-02-24 16:52:00,
2013-02-24 09:01:00,39.0,29.0,-100.00,South,187,5.0,10.0,66,-99.99,,,0.00,64.150002,,2013-02-24 17:01:00,
2013-02-24 09:11:00,39.0,29.0,-100.00,South,187,5.0,10.0,66,-99.99,,,0.00,64.150002,,2013-02-24 17:11:00,
2013-02-24 09:41:00,41.0,28.0,-100.00,SSW,206,5.0,11.0,59,-99.99,,,0.00,199.320007,,2013-02-24 17:41:00,
2013-02-24 09:52:00,41.0,28.0,-100.00,SSW,206,5.0,11.0,59,-99.99,,,0.00,199.320007,,2013-02-24 17:52:00,
2013-02-24 10:01:00,41.0,28.0,-100.00,SSW,206,5.0,11.0,59,-99.99,,,0.00,199.320007,,2013-02-24 18:01:00,
2013-02-24 10:11:00,41.0,28.0,-100.00,SSW,206,5.0,11.0,59,-99.99,,,0.00,199.320007,,2013-02-24 18:11:00,
2013-02-24 10:42:00,42.0,28.0,-100.00,South,186,6.0,12.0,57,-99.99,,,0.00,240.690002,,2013-02-24 18:42:00,
2013-02-24 10:52:00,42.0,28.0,-100.00,South,186,6.0,12.0,57,-99.99,,,0.00,240.690002,,2013-02-24 18:52:00,
2013-02-24 11:01:00,42.0,28.0,-100.00,South,186,6.0,12.0,57,-99.99,,,0.00,240.690002,,2013-02-24 19:01:00,
2013-02-24 11:11:00,42.0,28.0,-100.00,South,186,6.0,12.0,57,-99.99,,,0.00,240.690002,,2013-02-24 19:11:00,
2013-02-24 11:41:00,44.0,28.0,-100.00,SW,219,3.0,13.0,52,-99.99,,,0.00,386.079987,,2013-02-24 19:41:00,
2013-02-24 11:52:00,44.0,28.0,-100.00,SW,219,3.0,13.0,52,-99.99,,,0.00,386.079987,,2013-02-24 19:52:00,
2013-02-24 12:02:00,44.0,28.0,-100.00,SW,219,3.0,13.0,52,-99.99,,,0.00,386.079987,,2013-02-24 20:02:00,
2013-02-24 12:11:00,44.0,28.0,-100.00,SW,219,3.0,13.0,52,-99.99,,,0.00,386.079987,,2013-02-24 20:11:00,
2013-02-24 12:41:00,46.0,29.0,-100.00,NW,324,2.0,6.0,52,-99.99,,,0.00,442.910004,,2013-02-24 20:41:00,
2013-02-24 12:52:00,46.0,29.0,-100.00,NW,324,2.0,6.0,52,-99.99,,,0.00,442.910004,,2013-02-24 20:52:00,
2013-02-24 13:01:00,46.0,29.0,-100.00,NW,324,2.0,6.0,52,-99.99,,,0.00,442.910004,,2013-02-24 21:01:00,
2013-02-24 13:11:00,46.0,29.0,-100.00,NW,324,2.0,6.0,52,-99.99,,,0.00,442.910004,,2013-02-24 21:11:00,
2013-02-24 13:41:00,48.0,31.0,-100.00,SSW,213,6.0,12.0,50,-99.99,,,0.00,561.109985,,2013-02-24 21:41:00,
2013-02-24 13:52:00,48.0,31.0,-100.00,SSW,213,6.0,12.0,50,-99.99,,,0.00,561.109985,,2013-02-24 21:52:00,
2013-02-24 14:01:00,48.0,31.0,-100.00,SSW,213,6.0,12.0,50,-99.99,,,0.00,561.109985,,2013-02-24 22:01:00,
2013-02-24 14:11:00,48.0,31.0,-100.00,SSW,213,6.0,12.0,50,-99.99,,,0.00,561.109985,,2013-02-24 22:11:00,
2013-02-24 14:41:00,49.0,32.0,-100.00,SSW,205,6.0,13.0,51,-99.99,,,0.00,415.950012,,2013-02-24 22:41:00,
2013-02-24 14:52:00,49.0,32.0,-100.00,SSW,205,6.0,13.0,51,-99.99,,,0.00,415.950012,,2013-02-24 22:52:00,
2013-02-24 15:02:00,49.0,32.0,-100.00,SSW,205,6.0,13.0,51,-99.99,,,0.00,415.950012,,2013-02-24 23:02:00,
2013-02-24 15:11:00,49.0,32.0,-100.00,SSW,205,6.0,13.0,51,-99.99,,,0.00,415.950012,,2013-02-24 23:11:00,
2013-02-24 15:41:00,48.0,32.0,-100.00,WSW,257,4.0,13.0,54,-99.99,,,-99.99,253.240005,,2013-02-24 23:41:00,
2013-02-24 15:52:00,48.0,32.0,-100.00,WSW,257,4.0,13.0,54,-99.99,,,-99.99,253.240005,,2013-02-24 23:52:00,
2013-02-24 16:01:00,48.0,32.0,-100.00,WSW,257,4.0,13.0,54,-99.99,,,-99.99,253.240005,,2013-02-25 00:01:00,
2013-02-24 16:11:00,48.0,32.0,-100.00,WSW,257,4.0,13.0,54,-99.99,,,-99.99,253.240005,,2013-02-25 00:11:00,
2013-02-24 16:41:00,48.0,32.0,-100.00,WNW,293,2.0,6.0,55,-99.99,,,0.00,213.380005,,2013-02-25 00:41:00,
2013-02-24 16:52:00,48.0,32.0,-100.00,WNW,293,2.0,6.0,55,-99.99,,,0.00,213.380005,,2013-02-25 00:52:00,
2013-02-24 17:01:00,48.0,32.0,-100.00,WNW,293,2.0,6.0,55,-99.99,,,0.00,213.380005,,2013-02-25 01:01:00,
2013-02-24 17:11:00,48.0,32.0,-100.00,WNW,293,2.0,6.0,55,-99.99,,,0.00,213.380005,,2013-02-25 01:11:00,
2013-02-24 17:42:00,44.0,32.0,-100.00,WNW,302,2.0,5.0,62,-99.99,,,0.00,29.520000,,2013-02-25 01:42:00,
2013-02-24 17:52:00,44.0,32.0,-100.00,WNW,302,2.0,5.0,62,-99.99,,,0.00,29.520000,,2013-02-25 01:52:00,
2013-02-24 18:01:00,44.0,32.0,-100.00,WNW,302,2.0,5.0,62,-99.99,,,0.00,29.520000,,2013-02-25 02:01:00,
2013-02-24 18:11:00,44.0,32.0,-100.00,WNW,302,2.0,5.0,62,-99.99,,,0.00,29.520000,,2013-02-25 02:11:00,
2013-02-24 18:41:00,40.0,34.0,-100.00,NW,307,0.0,1.0,77,-99.99,,,0.00,0.120000,,2013-02-25 02:41:00,
2013-02-24 18:52:00,40.0,34.0,-100.00,NW,307,0.0,1.0,77,-99.99,,,0.00,0.120000,,2013-02-25 02:52:00,
2013-02-24 19:01:00,40.0,34.0,-100.00,NW,307,0.0,1.0,77,-99.99,,,0.00,0.120000,,2013-02-25 03:01:00,
2013-02-24 19:11:00,40.0,34.0,-100.00,NW,307,0.0,1.0,77,-99.99,,,0.00,0.120000,,2013-02-25 03:11:00,
2013-02-24 19:41:00,38.0,33.0,-100.00,NW,325,1.0,3.0,83,-99.99,,,0.00,0.000000,,2013-02-25 03:41:00,
2013-02-24 19:52:00,38.0,33.0,-100.00,NW,325,1.0,3.0,83,-99.99,,,0.00,0.000000,,2013-02-25 03:52:00,
2013-02-24 20:01:00,38.0,33.0,-100.00,NW,325,1.0,3.0,83,-99.99,,,0.00,0.000000,,2013-02-25 04:01:00,
2013-02-24 20:11:00,38.0,33.0,-100.00,NW,325,1.0,3.0,83,-99.99,,,0.00,0.000000,,2013-02-25 04:11:00,
2013-02-24 20:41:00,36.0,33.0,-100.00,WSW,248,0.0,2.0,90,-99.99,,,0.00,0.000000,,2013-02-25 04:41:00,
2013-02-24 20:52:00,36.0,33.0,-100.00,WSW,248,0.0,2.0,90,-99.99,,,0.00,0.000000,,2013-02-25 04:52:00,
2013-02-24 21:01:00,36.0,33.0,-100.00,WSW,248,0.0,2.0,90,-99.99,,,0.00,0.000000,,2013-02-25 05:01:00,
2013-02-24 21:11:00,36.0,33.0,-100.00,WSW,248,0.0,2.0,90,-99.99,,,0.00,0.000000,,2013-02-25 05:11:00,
2013-02-24 21:41:00,35.0,33.0,-100.00,South,177,1.0,3.0,93,-99.99,,,0.00,0.000000,,2013-02-25 05:41:00,
2013-02-24 21:52:00,35.0,33.0,-100.00,South,177,1.0,3.0,93,-99.99,,,0.00,0.000000,,2013-02-25 05:52:00,
2013-02-24 22:02:00,35.0,33.0,-100.00,South,177,1.0,3.0,93,-99.99,,,0.00,0.000000,,2013-02-25 06:02:00,
2013-02-24 22:11:00,35.0,33.0,-100.00,South,177,1.0,3.0,93,-99.99,,,0.00,0.000000,,2013-02-25 06:11:00,
2013-02-24 22:41:00,35.0,33.0,-100.00,SSE,152,0.0,2.0,93,-99.99,,,0.00,0.000000,,2013-02-25 06:41:00,
2013-02-24 22:52:00,35.0,33.0,-100.00,SSE,152,0.0,2.0,93,-99.99,,,0.00,0.000000,,2013-02-25 06:52:00,
2013-02-24 23:01:00,35.0,33.0,-100.00,SSE,152,0.0,2.0,93,-99.99,,,0.00,0.000000,,2013-02-25 07:01:00,
2013-02-24 23:11:00,35.0,33.0,-100.00,SSE,152,0.0,2.0,93,-99.99,,,0.00,0.000000,,2013-02-25 07:11:00,
2013-02-24 23:41:00,35.0,34.0,-100.00,West,274,0.0,2.0,93,-99.99,,,0.00,0.000000,,2013-02-25 07:41:00,
2013-02-24 23:52:00,35.0,34.0,-100.00,West,274,0.0,2.0,93,-99.99,,,0.00,0.000000,,2013-02-25 07:52:00,